EW5089 Weather Reports


Display with metric or nautical units.
time (UTC)temp
F
wind
direction
speed
MPH
gust
MPH
rain 1hr
in
rain 24hr
in
rain mn
in
humidity
%
barometer
mb
20201128173148 34 181 3.0 6.0 0.00 0.00 0.00 63 1027.3
20201128171656 32 267 1.0 4.0 0.00 0.00 0.00 64 1027.7
20201128170123 30 267 2.0 4.0 0.00 0.00 0.00 69 1027.8
20201128164630 29 267 1.0 2.0 0.00 0.00 0.00 73 1027.9
20201128163237 29 267 2.0 4.0 0.00 0.00 0.00 74 1027.9
20201128161706 28 196 0.0 4.0 0.00 0.00 0.00 74 1027.7
20201128160130 28 278 1.0 4.0 0.00 0.00 0.00 74 1027.6
20201128154725 27 278 1.0 3.0 0.00 0.00 0.00 76 1027.4
20201128153054 26 179 0.0 0.0 0.00 0.00 0.00 78 1027.4
20201128151655 26 179 0.0 0.0 0.00 0.00 0.00 78 1027.1
20201128150138 26 179 0.0 3.0 0.00 0.00 0.00 77 1027.0
20201128144757 26 182 2.0 4.0 0.00 0.00 0.00 76 1026.9
20201128143048 27 164 1.0 3.0 0.00 0.00 0.00 74 1026.6
20201128141625 28 164 1.0 6.0 0.00 0.00 0.00 71 1026.2
20201128140054 28 253 1.0 3.0 0.00 0.00 0.00 72 1026.0
20201128134705 29 253 0.0 2.0 0.00 0.00 0.00 70 1025.7
20201128133130 30 253 1.0 3.0 0.00 0.00 0.00 70 1025.4
20201128131549 28 253 2.0 4.0 0.00 0.00 0.00 75 1025.4
20201128130026 27 253 1.0 4.0 0.00 0.00 0.00 76 1025.2
20201128124531 27 252 1.0 2.0 0.00 0.00 0.00 76 1025.2
20201128123051 27 252 0.0 3.0 0.00 0.00 0.00 76 1025.0
20201128121543 27 252 1.0 4.0 0.00 0.00 0.00 74 1025.2
20201128120054 28 252 1.0 3.0 0.00 0.00 0.00 73 1025.1
20201128114608 28 159 0.0 0.0 0.00 0.00 0.00 73 1025.2
20201128113032 28 159 0.0 0.0 0.00 0.00 0.00 72 1025.2
20201128111540 29 159 0.0 2.0 0.00 0.00 0.00 70 1025.3
20201128110030 30 159 0.0 2.0 0.00 0.00 0.00 69 1025.2
20201128104509 31 159 0.0 3.0 0.00 0.00 0.00 67 1025.2
20201128103300 31 159 2.0 5.0 0.00 0.00 0.00 67 1024.9
20201128101741 32 181 2.0 5.0 0.00 0.00 0.00 65 1024.7
20201128100246 31 198 1.0 5.0 0.00 0.00 0.00 66 1024.9
20201128094638 31 111 1.0 4.0 0.00 0.00 0.00 65 1024.6
20201128093243 32 137 4.0 8.0 0.00 0.00 0.00 64 1024.6
20201128091704 32 130 2.0 8.0 0.00 0.00 0.00 64 1024.7
20201128090108 33 190 5.0 8.0 0.00 0.00 0.00 64 1024.7
20201128084628 33 174 2.0 7.0 0.00 0.00 0.00 64 1024.7
20201128083053 34 208 1.0 5.0 0.00 0.00 0.00 62 1024.7
20201128081552 35 170 2.0 8.0 0.00 0.00 0.00 60 1024.7
20201128080048 35 221 4.0 10.0 0.00 0.00 0.00 60 1024.7
20201128074544 35 153 2.0 7.0 0.00 0.00 0.00 60 1024.7
20201128073145 34 228 2.0 5.0 0.00 0.00 0.00 61 1024.8
20201128071611 34 182 2.0 6.0 0.00 0.00 0.00 61 1024.9
20201128070057 34 223 2.0 9.0 0.00 0.00 0.00 61 1024.7
20201128064602 35 168 3.0 8.0 0.00 0.00 0.00 60 1024.5
20201128063111 35 160 1.0 6.0 0.00 0.00 0.00 59 1024.5
20201128061610 36 184 1.0 8.0 0.00 0.00 0.00 57 1024.5
20201128060052 37 235 4.0 11.0 0.00 0.00 0.00 56 1024.6
20201128054603 37 190 3.0 10.0 0.00 0.00 0.00 55 1024.7
20201128053041 37 232 2.0 9.0 0.00 0.00 0.00 55 1024.8
20201128051609 37 244 1.0 4.0 0.00 0.00 0.00 55 1024.7
20201128050101 37 236 2.0 8.0 0.00 0.00 0.00 55 1024.9
20201128044641 37 216 4.0 7.0 0.00 0.00 0.00 55 1024.9
20201128043139 37 183 3.0 7.0 0.00 0.00 0.00 54 1025.0
20201128041538 37 186 4.0 9.0 0.00 0.00 0.00 54 1025.1
20201128040117 37 180 3.0 5.0 0.00 0.00 0.00 53 1025.3
20201128034613 38 167 4.0 10.0 0.00 0.00 0.00 52 1025.2
20201128033058 39 155 5.0 8.0 0.00 0.00 0.00 51 1025.2
20201128031636 39 176 4.0 7.0 0.00 0.00 0.00 50 1025.1
20201128030054 40 180 3.0 7.0 0.00 0.00 0.00 51 1025.0
20201128024542 40 167 5.0 9.0 0.00 0.00 0.00 51 1025.2
20201128023026 40 154 4.0 7.0 0.00 0.00 0.00 52 1025.3
20201128021519 39 157 4.0 8.0 0.00 0.00 0.00 53 1025.3
20201128020047 40 136 4.0 8.0 0.00 0.00 0.00 52 1025.4
20201128014527 41 146 4.0 8.0 0.00 0.00 0.00 49 1025.3
20201128013048 42 146 5.0 7.0 0.00 0.00 0.00 47 1025.4
20201128011516 43 161 4.0 8.0 0.00 0.00 0.00 46 1025.5
20201128010024 42 182 2.0 7.0 0.00 0.00 0.00 47 1025.6
20201128004523 43 240 0.0 4.0 0.00 0.00 0.00 46 1025.6
20201128003024 44 207 1.0 5.0 0.00 0.00 0.00 44 1025.6
20201128001512 45 205 2.0 6.0 0.00 0.00 0.00 42 1025.6
20201128000012 46 169 2.0 4.0 0.00 0.00 0.00 42 1025.7
20201127234517 46 243 1.0 7.0 0.00 0.00 0.00 42 1025.9
20201127233134 47 239 1.0 4.0 0.00 0.00 0.00 41 1025.9
20201127231808 47 232 2.0 6.0 0.00 0.00 0.00 40 1026.1
20201127230158 48 254 1.0 8.0 0.00 0.00 0.00 40 1026.1
20201127224638 48 239 1.0 3.0 0.00 0.00 0.00 39 1026.0
20201127223150 49 238 2.0 5.0 0.00 0.00 0.00 37 1025.9
20201127221627 48 234 2.0 7.0 0.00 0.00 0.00 38 1026.1
20201127220149 49 240 1.0 7.0 0.00 0.00 0.00 34 1026.4
20201127214613 49 250 2.0 10.0 0.00 0.00 0.00 37 1026.6
20201127213240 47 256 1.0 4.0 0.00 0.00 0.00 38 1026.8
20201127211634 47 227 3.0 8.0 0.00 0.00 0.00 37 1026.9
20201127210059 46 244 3.0 8.0 0.00 0.00 0.00 40 1027.3
20201127204641 45 233 2.0 8.0 0.00 0.00 0.00 41 1027.6
20201127203121 46 213 3.0 7.0 0.00 0.00 0.00 40 1027.7
20201127201547 44 152 3.0 9.0 0.00 0.00 0.00 43 1027.9
20201127200112 43 198 3.0 10.0 0.00 0.00 0.00 45 1028.2
20201127194549 41 217 3.0 10.0 0.00 0.00 0.00 47 1028.4
20201127193110 40 235 4.0 10.0 0.00 0.00 0.00 48 1028.6
20201127191556 39 233 3.0 10.0 0.00 0.00 0.00 51 1028.8
20201127190052 39 239 3.0 9.0 0.00 0.00 0.00 52 1029.0
20201127184528 38 232 4.0 11.0 0.00 0.00 0.00 54 1029.1
20201127183022 38 238 3.0 10.0 0.00 0.00 0.00 57 1029.4
20201127181512 37 166 3.0 14.0 0.00 0.00 0.00 58 1029.5
20201127180018 36 252 3.0 9.0 0.00 0.00 0.00 61 1029.6
20201127174627 36 254 4.0 14.0 0.00 0.00 0.00 62 1029.7